Location: Drocourt
(49.0571°N, 1.7669°E)
Time: 07:21:06
(UTC+00:00)

SR - Pass Details

Date: 22 April 2024
Orbit: 579 x 859 km, 66.7° (Epoch: 26 May)

Event Time Altitude Azimuth Distance (km) Brightness Sun altitude
Exits shadow 03:11:40 12° 274° (W) 2,168 ? -14.5°
Maximum altitude 03:15:26 24° 324° (NW) 1,500 ? -14.0°
Drops below altitude 10° 03:19:28 10° 18° (NNE) 2,177 ? -13.5°
Sets 03:22:08 0° 33° (NNE) 3,044 ? -13.1°
